Location: Jackson Park
(37.2862°N, 79.9123°W)
Time: 10:58:46
(UTC+00:00)

Vanguard 3 - Pass Details

Date: 13 May 2026
Orbit: 507 x 3204 km, 33.3° (Epoch: 11 June)

Event Time Altitude Azimuth Distance (km) Brightness Sun altitude
Rises 23:37:13 0° 278° (W) 7,093 14.1 7.1°
Reaches altitude 10° 23:42:19 10° 276° (W) 5,919 13.7 6.1°
Maximum altitude 23:59:23 62° 202° (SSW) 2,458 9.7 2.9°
Drops below altitude 10° 00:09:41 10° 124° (SE) 3,742 9.9 1.0°
Sets 00:12:11 0° 121° (ESE) 4,431 10.2 0.6°
